Regional Weather Roundup
Issued by NWS

Home | Current Version | Previous Version | Graphics & Text | Print | Product List | Glossary On
Versions: 1 2 3 4 5 6 7 8 9 10 11 12 13 14 15 16 17 18 19 20 21 22 23 24 25 26 27 28 29 30 31 32 33 34 35 36 37 38 39 40 41 42 43 44 45 46 47 48 49 50
000
ASUS43 KDTX 260801
RWRMI
MICHIGAN HOURLY REGIONAL WEATHER ROUNDUP
NATIONAL WEATHER SERVICE DETROIT/PONTIAC MI
300 AM EST FRI DEC 26 2014

NOTE: "FAIR" INDICATES FEW OR NO CLOUDS BELOW 12,000 FEET WITH NO
SIGNIFICANT WEATHER AND/OR OBSTRUCTION TO VISIBILITY.

MIZ047>049-052>055-059>063-066>070-074>076-081>083-260900-
SOUTHEAST LOWER MICHIGAN

CITY           SKY/WX    TMP DP  RH WIND       PRES   REMARKS
ADRIAN         MOCLDY    31  29  92 SW7       30.15R WCI  24
ALMA           MOCLDY    33  32  95 S7        30.08R WCI  27
ANN ARBOR      MOCLDY    32  30  92 S5        30.13R WCI  27
BAD AXE        CLOUDY    32  31  95 SW6       30.10R WCI  27
CARO           CLOUDY    34  31  88 S7        30.09R WCI  28
DETROIT CITY   MOCLDY    37  30  75 SW10      30.16R WCI  30
DETROIT        PTCLDY    33  30  88 S7        30.16R WCI  27
FLINT          CLOUDY    36  29  75 S8        30.11R WCI  30
GROSSE ILE     PTCLDY    36  32  87 SW7       30.15S WCI  30
HILLSDALE      MOCLDY    33  33  96 S7        30.10R WCI  27
HOWELL         MOCLDY    34  31  91 S7        30.10R WCI  28

CITY           SKY/WX    TMP DP  RH WIND       PRES   REMARKS
JACKSON        CLOUDY    35  30  82 S10       30.10R WCI  27
LAMBERTVILLE   PTCLDY    34  30  86 S3        30.16S
LANSING        PTCLDY    35  30  82 S8        30.10R WCI  29
LAPEER         FAIR      34  31  88 SW7       30.11R WCI  28
MASON          MOCLDY    34  30  86 CALM      30.10R
MONROE         PTCLDY    30  28  93 CALM      30.14F
MT. CLEMENS    MOCLDY    35  35  99 SW8       30.13R WCI  29
PONTIAC        MOCLDY    33  30  88 S6        30.11R WCI  28
PORT HOPE        N/A     34  29  82 SW9       30.07R WCI  27
PORT HURON     MOCLDY    36  30  80 SW6       30.14R WCI  31
TRI CITIES     CLOUDY    33  29  85 S6        30.09R WCI  28
TROY           MOCLDY    36  31  83 S6        30.15R WCI  31
SAGINAW HB     CLOUDY    34  32  93 S7        30.09R WCI  28
$$
MIZ043>046-050>051-056>058-064>065-071>073-077>080-260900-
SOUTHWEST LOWER MICHIGAN

CITY           SKY/WX    TMP DP  RH WIND       PRES   REMARKS
BATTLE CREEK   CLOUDY    36  31  82 S10       30.08R WCI  28
BENTON HARBOR  MOCLDY    38  32  79 S9        30.06R WCI  31
BIG RAPIDS     CLOUDY    32  32 100 CALM      30.03R FOG
COLDWATER      CLOUDY    36  31  84 MISG      30.10R
FREMONT        FAIR      32  32  99 SE5       30.03S WCI  27
HOLLAND        CLOUDY    38  32  79 S8        30.05R WCI  32
GRAND RAPIDS   CLOUDY    34  30  85 S8        30.06R WCI  27
IONIA          FAIR      36  32  87 SW9       30.06R WCI  29
KALAMAZOO      CLOUDY    36  31  82 S10       30.08R WCI  28
LUDINGTON      MOCLDY    41  36  81 S8        30.00S
MARSHALL       CLOUDY    34  31  88 S3        30.09S
MOUNT PLEASANT PTCLDY    28  28  97 CALM      30.06R FOG
MUSKEGON       MOCLDY    40  35  83 S10       30.03S WCI  33
SOUTH HAVEN    CLOUDY    39  33  77 S7        30.05S WCI  34
$$
MIZ016>042-260900-
NORTHERN LOWER MICHIGAN

CITY           SKY/WX    TMP DP  RH WIND       PRES   REMARKS
ALPENA         MOCLDY    34  30  85 S7        30.02S WCI  28
BEAVER ISLAND  CLOUDY    34  33  99 CALM      29.97R FOG
BELLAIRE       CLOUDY    38  34  84 CALM      29.99S
CADILLAC       CLOUDY    35  33  93 S8        29.99S WCI  28
CHARLEVOIX     CLOUDY    38  36  89 S9        30.00S WCI  32
FRANKFORT      CLOUDY    40  37  90 S9        29.98S WCI  34
GAYLORD        CLOUDY    34  32  92 S9        29.98R WCI  27
GRAYLING       CLOUDY    36  32  87 S5        30.01R WCI  32
HARBOR SPRINGS CLOUDY    37  34  87 SW6       29.97S WCI  33
HOUGHTON LAKE  CLOUDY    35  32  88 SW7       30.02S WCI  29
MANISTEE       CLOUDY    39  34  81 S7        30.00S WCI  34
OSCODA         CLOUDY    34  31  88 S8        30.06R WCI  28
PELLSTON       CLOUDY    37  34  89 SW3       29.98R
ROGERS CITY    CLOUDY    34  33  94 S10       30.01S WCI  26
TRAVERSE CITY  CLOUDY    39  34  82 CALM      29.98S
$$
MIZ007>008-015-260900-
EASTERN UPPER MICHIGAN

CITY           SKY/WX    TMP DP  RH WIND       PRES   REMARKS
KINROSS        CLOUDY    34  34 100 S5        29.96S WCI  30
MACKINAC ISLAN CLOUDY    34  34 100 CALM      29.97S FOG
NEWBERRY       CLOUDY    31  31 100 SW6       29.95R WCI  26
S. S. MARIE    CLOUDY    33  31  92 SW3       29.96R
MUNISING         N/A     34  31  88 CALM      29.94R
$$
MIZ004>006-011>014-085-260900-
CENTRAL UPPER MICHIGAN

CITY           SKY/WX    TMP DP  RH WIND       PRES   REMARKS
MANISTIQUE     CLOUDY    32  32 100 CALM      29.95S
ESCANABA       CLOUDY    30  28  93 CALM      29.94S
MENOMINEE      CLOUDY    28  27  93 NE3       29.93R
SAWYER-GWINN   CLOUDY    31  30  96 CALM      29.91R FOG
$$
MIZ001>003-009>011-084-260900-
WESTERN UPPER MICHIGAN

CITY           SKY/WX    TMP DP  RH WIND       PRES   REMARKS
IRON MOUNTAIN  CLOUDY    31  29  92 CALM      29.90F FOG
HOUGHTON       LGT SNOW  31  28  89 W5        29.90R FOG     WCI  26
COPPER HARBOR    N/A     34  30  85 W3        29.91R
IRONWOOD       CLOUDY    28  28 100 CALM      29.87S
$$

ABBREVIATIONS USED IN REMARKS
   TC - TEMPERATURE IN CELSIUS
  WCI - WIND CHILL INDEX
   HX - HEAT INDEX
  VSB - VISIBILITY



USA.gov is the U.S. government's official web portal to all federal, state and local government web resources and services.